Location: Feigenhofen
(48.4939°N, 10.7793°E)
Time: 22:16:30
(UTC+00:00)

USA 307 - Pass Details

Date: 26 May 2022
Orbit: 552 x 554 km, 54.0° (Epoch: 17 June)

Event Time Altitude Azimuth Distance (km) Brightness Sun altitude
Exits shadow 00:12:06 43° 155° (SSE) 783 3.2 -19.2°
Maximum altitude 00:12:24 44° 141° (SE) 773 3.2 -19.2°
Drops below altitude 10° 00:16:23 10° 69° (ENE) 1,843 6.0 -19.0°
Sets 00:18:42 0° 63° (ENE) 2,742 7.0 -18.9°
